Location: ??????
(38.0677°N, 22.9870°E)
Time: 17:15:10
(UTC+00:00)

CZ-2D R/B - Pass Details

Date: 23 May 2024
Orbit: 790 x 843 km, 98.8° (Epoch: 24 June)

Event Time Altitude Azimuth Distance (km) Brightness Sun altitude
Rises 00:12:37 0° 16° (NNE) 3,405 6.6 -26.1°
Reaches altitude 10° 00:15:01 10° 19° (NNE) 2,463 5.6 -25.8°
Maximum altitude 00:20:28 67° 102° (ESE) 901 2.3 -25.3°
Enters shadow 00:21:27 55° 154° (SSE) 990 2.3 -25.2°
